View from above orbital plane
|
View from above satellite
|
Ground track
|
The orbit data is extracted from the following two-line orbital elements,
1 00107U 61013A 21023.63186936 .00000747 00000-0 79872-4 0 9994
2 00107 28.7922 17.8391 0545919 313.1698 42.4470 14.09098890997300
Epoch (UTC): | 23 January 2021 15:09:53 |
Eccentricity: | 0.0545919 |
inclination: | 28.7922° |
perigee height: | 467 km |
apogee height: | 1258 km |
right ascension of ascending node: | 17.8391° |
argument of perigee: | 313.1698° |
revolutions per day: | 14.09098890 |
mean anomaly at epoch: | 42.4470° |
orbit number at epoch: | 99730 |
The dashed part of the orbit path shows where the satellite is in the earth's shadow,
|
|